Regional Weather Roundup
Issued by NWS Newport/Morehead, NC

Current Version | Previous Version | Graphics & Text | Print | Product List | Glossary Off
Versions: 1 2 3 4 5 6 7 8 9 10 11 12 13 14 15 16 17 18 19 20 21 22 23 24 25 26 27 28 29 30 31 32 33 34 35 36 37 38 39 40 41 42 43 44 45 46 47 48 49 50

000
ASUS42 KMHX 161910
RWRMHX
WEATHER ROUNDUP FOR EASTERN NORTH CAROLINA
NATIONAL WEATHER SERVICE NEWPORT/MOREHEAD CITY NC
300 PM EDT TUE SEP 16 2014

NOTE: "FAIR" INDICATES FEW OR NO CLOUDS BELOW 12,000 FEET
WITH NO SIGNIFICANT WEATHER AND/OR OBSTRUCTIONS TO VISIBILITY

NCZ015>017-031-032-045>047-102-103-162000-
NORTH COAST

CITY           SKY/WX    TMP DP  RH WIND       PRES   REMARKS
EDENTON        SUNNY     82  66  56 W6        29.97S
ELIZABETH CITY SUNNY     82  64  54 VRB3      29.96F
KITTY HAWK     CLEAR     81  66  60 W7        29.95F
MANTEO         SUNNY     80  67  63 N8        29.96F

$$

NCZ045>047-081-094-103-104-162000-
CENTRAL COAST

CITY           SKY/WX    TMP DP  RH WIND       PRES   REMARKS
FRISCO         SUNNY     79  69  71 SW7       29.97F
SWANQUARTER      N/A     82 N/A N/A SW8       29.91F

$$

NCZ095-097-098-100-101-162000-
SOUTHERN COAST

CITY           SKY/WX    TMP DP  RH WIND       PRES   REMARKS
BEAUFORT       SUNNY     80  72  76 S8        29.97F
CEDAR ISLAND     N/A     79 N/A N/A E1        30.00F
JACKSONVILLE   PTSUNNY   83  69  62 CALM      29.96F
NEWPORT        NOT AVBL
PINEY ISLAND   PTCLDY    81  69  67 SE5       29.96F
WILMINGTON     MOSUNNY   82  73  74 SE10      29.97F


$$

NCZ011>013-027>030-043-044-078>080-089-090>093-098-162000-
COASTAL PLAIN

CITY           SKY/WX    TMP DP  RH WIND       PRES   REMARKS
AHOSKIE        MOSUNNY   78  64  62 CALM      29.98S
CLINTON        SUNNY     83  68  60 CALM      29.99F
ELIZABETHTOWN  SUNNY     83  67  57 CALM      29.99F
GOLDSBORO      SUNNY     82  69  64 CALM      29.96F
GREENVILLE     SUNNY     82  64  54 CALM      29.99F
HAVELOCK       PTSUNNY   84  69  60 N3        29.97F
KENANSVILLE    SUNNY     82  63  53 CALM      29.99F
KINSTON        MOSUNNY   82  66  57 CALM      29.99F
NEW BERN       SUNNY     87  68  52 VRB6      29.97F
RICHLANDS      MOSUNNY   82  70  65 W3        29.97F
ROANOKE RAPIDS NOT AVBL
ROCKY MOUNT    PTSUNNY   82  62  50 CALM      29.99S
WASHINGTON     SUNNY     80  66  60 CALM      29.98S
WHITEVILLE     MOSUNNY   83  69  62 E3        29.97F

$$

AMZ130-135-150-152-154-156-158-170-250-252-270-ANZ085-086-088-633-658-670-162000-
MARINE OBSERVATIONS

STATION/POSITION TIME  TEMP    WIND        PRES    WAVE   SWELL
                       AIR SEA DIR/SP/G            HT/PER HT/PER
                 (UTC) (F)     (DEG/KT/KT) (MB)    (FT/S) (FT/S)
CHESAPEAKE LIGHT 1800   74     280/  6/  7 1016.1
BUOY 44014       1900   74 79  300/ 10/ 12 1014.4    2/13   2/13
DUCK             1900   76 76   30/  7/  8 1014.0
2E DUCK          1900                        N/A     2/12   2/12
OREGON INLET     1900   78 75   90/  1/  5 1014.7
BUOY 44095       1900      80                N/A     2/12   2/12
20E OREGON INLET NOT AVBL
HATTERAS CG      1900   79 78  220/  5/  8 1015.3
DIAMOND BUOY     1900   76     280/  4/  6 1015.1    2/ 8   2/ 8
CAPE LOOKOUT     1800   77     170/  6/  7 1015.5
BEAUFORT LAB     1900   78 79  190/  7/ 10 1014.4
30 SE NEW RIVER  1900   77 82   80/  2/  4 1015.6    2/13   2/13
5 SE WRIGHTSVILL 1800   75 82   90/ 10/ 10   N/A
BUOY 41002       1754   79 83  260/  4/  6 1015.5    3/13   3/13
BUOY 41004       1900   81 84  330/  2/  4 1015.1    2/ 6   2/ 6

$$



USA.gov is the U.S. government's official web portal to all federal, state and local government web resources and services.